S55UMX-6 Weather Reports


Display with metric or nautical units.
time (UTC)temp
F
wind
direction
speed
MPH
gust
MPH
rain 1hr
in
rain 24hr
in
rain mn
in
humidity
%
barometer
mb
20181017223902 53 158 0.0 0.0 0.00 0.00 0.00 80 946.4
20181017223401 53 158 0.0 0.0 0.00 0.00 0.00 80 946.3
20181017222401 53 158 0.0 0.0 0.00 0.00 0.00 78 946.5
20181017220940 53 158 0.0 0.0 0.00 0.00 0.00 76 946.4
20181017220902 53 158 0.0 0.0 0.00 0.00 0.00 76 946.4
20181017220458 53 158 0.0 0.0 0.00 0.00 0.00 75 946.4
20181017220401 53 158 0.0 0.0 0.00 0.00 0.00 75 946.4
20181017215902 53 158 0.0 0.0 0.00 0.00 0.00 75 946.5
20181017215451 53 158 0.0 0.0 0.00 0.00 0.00 75 946.5
20181017215401 53 158 0.0 0.0 0.00 0.00 0.00 75 946.5
20181017214903 53 158 0.0 0.0 0.00 0.00 0.00 75 946.6
20181017214403 53 158 0.0 0.0 0.00 0.00 0.00 76 946.5
20181017213958 53 158 0.0 0.0 0.00 0.00 0.00 76 946.6
20181017213903 53 158 0.0 0.0 0.00 0.00 0.00 76 946.6
20181017213401 53 158 0.0 0.0 0.00 0.00 0.00 76 946.7
20181017212902 53 158 0.0 0.0 0.00 0.00 0.00 76 946.7
20181017212402 53 158 0.0 0.0 0.00 0.00 0.00 76 946.6
20181017211946 53 158 0.0 0.0 0.00 0.00 0.00 76 946.6
20181017211904 53 158 0.0 0.0 0.00 0.00 0.00 76 946.6
20181017210946 53 158 0.0 0.0 0.00 0.00 0.00 76 946.8
20181017210902 53 158 0.0 0.0 0.00 0.00 0.00 76 946.8
20181017205904 53 135 0.0 0.0 0.00 0.00 0.00 77 946.6
20181017205048 53 135 0.0 0.0 0.00 0.00 0.00 77 946.6
20181017204902 53 135 0.0 0.0 0.00 0.00 0.00 77 946.6
20181017204402 53 135 0.0 0.0 0.00 0.00 0.00 79 946.7
20181017203902 53 135 0.0 0.0 0.00 0.00 0.00 78 946.7
20181017203615 53 135 0.0 0.0 0.00 0.00 0.00 81 946.7
20181017203401 53 135 0.0 0.0 0.00 0.00 0.00 81 946.7
20181017202905 53 135 0.0 0.0 0.00 0.00 0.00 82 946.7
20181017202445 53 135 0.0 0.0 0.00 0.00 0.00 82 946.8
20181017202402 53 135 0.0 0.0 0.00 0.00 0.00 82 946.8
20181017201902 53 113 0.0 0.0 0.00 0.00 0.00 83 946.7
20181017201456 53 113 0.0 0.0 0.00 0.00 0.00 83 946.7
20181017201404 53 113 0.0 0.0 0.00 0.00 0.00 83 946.7
20181017200902 53 113 0.0 0.0 0.00 0.00 0.00 83 946.8
20181017200436 53 113 0.0 0.0 0.00 0.00 0.00 84 946.8
20181017200403 53 113 0.0 0.0 0.00 0.00 0.00 84 946.8
20181017195903 53 113 0.0 0.0 0.00 0.00 0.00 84 946.7
20181017195401 53 113 0.0 0.0 0.00 0.00 0.00 84 946.8
20181017194901 53 113 0.0 0.0 0.00 0.00 0.00 84 946.8
20181017194401 53 113 0.0 0.0 0.00 0.00 0.00 84 946.8
20181017193902 53 113 0.0 0.0 0.00 0.00 0.00 84 946.9
20181017193402 53 45 0.0 0.0 0.00 0.00 0.00 84 946.8
20181017192935 53 45 0.0 0.0 0.00 0.00 0.00 84 946.9
20181017192902 53 45 0.0 0.0 0.00 0.00 0.00 84 946.9
20181017192402 53 45 0.0 0.0 0.00 0.00 0.00 84 946.8
20181017191943 53 45 0.0 0.0 0.00 0.00 0.00 84 946.9
20181017191903 53 45 0.0 0.0 0.00 0.00 0.00 84 946.9
20181017191406 53 45 0.0 0.0 0.00 0.00 0.00 84 946.9
20181017190902 53 45 0.0 0.0 0.00 0.00 0.00 84 947.0
20181017190401 53 45 0.0 0.0 0.00 0.00 0.00 84 946.9
20181017185904 53 45 0.0 0.0 0.00 0.00 0.00 84 946.9
20181017185402 53 45 0.0 0.0 0.00 0.00 0.00 84 946.9
20181017184940 53 45 0.0 0.0 0.00 0.00 0.00 84 946.8
20181017184903 53 45 0.0 0.0 0.00 0.00 0.00 84 946.8
20181017183944 53 45 0.0 0.0 0.00 0.00 0.00 84 946.7
20181017183902 53 45 0.0 0.0 0.00 0.00 0.00 84 946.7
20181017183515 53 45 0.0 0.0 0.00 0.00 0.00 84 946.8
20181017183402 53 45 0.0 0.0 0.00 0.00 0.00 84 946.8
20181017182402 53 45 0.0 0.0 0.00 0.00 0.00 84 946.9
20181017181902 53 45 0.0 0.0 0.00 0.00 0.00 84 946.9
20181017180903 53 45 0.0 0.0 0.00 0.00 0.00 84 946.6
20181017180402 53 45 0.0 0.0 0.00 0.00 0.00 84 946.7
20181017175904 53 45 0.0 0.0 0.00 0.00 0.00 84 946.7
20181017174957 52 45 0.0 0.0 0.00 0.00 0.00 83 946.9
20181017174902 52 45 0.0 0.0 0.00 0.00 0.00 83 946.9
20181017174402 52 45 0.0 0.0 0.00 0.00 0.00 83 946.8
20181017173944 52 45 0.0 0.0 0.00 0.00 0.00 83 946.7
20181017173903 52 45 0.0 0.0 0.00 0.00 0.00 83 946.7
20181017173446 52 45 0.0 0.0 0.00 0.00 0.00 83 946.8
20181017173402 52 45 0.0 0.0 0.00 0.00 0.00 83 946.8
20181017172442 52 45 0.0 0.0 0.00 0.00 0.00 83 946.8
20181017172402 52 45 0.0 0.0 0.00 0.00 0.00 83 946.8
20181017171902 52 45 0.0 0.0 0.00 0.00 0.00 82 946.8
20181017171402 52 45 0.0 0.0 0.00 0.00 0.00 82 946.6
20181017170902 52 45 0.0 0.0 0.00 0.00 0.00 82 946.6
20181017170402 53 45 0.0 0.0 0.00 0.00 0.00 82 946.6
20181017165403 53 45 0.0 0.0 0.00 0.00 0.00 81 946.5
20181017164902 53 45 0.0 0.0 0.00 0.00 0.00 81 946.6
20181017163902 53 45 0.0 0.0 0.00 0.00 0.00 81 946.6
20181017163402 53 45 0.0 0.0 0.00 0.00 0.00 81 946.5
20181017162403 53 45 0.0 0.0 0.00 0.00 0.00 81 946.4
20181017161903 53 45 0.0 0.0 0.00 0.00 0.00 81 946.4
20181017161404 53 45 0.0 0.0 0.00 0.00 0.00 81 946.4
20181017160903 53 45 0.0 0.0 0.00 0.00 0.00 81 946.3
20181017160403 54 45 0.0 0.0 0.00 0.00 0.00 81 946.3
20181017155903 54 45 0.0 0.0 0.00 0.00 0.00 81 946.2
20181017155403 54 45 0.0 0.0 0.00 0.00 0.00 81 946.3
20181017154903 54 45 0.0 0.0 0.00 0.00 0.00 80 946.2
20181017154404 55 45 0.0 0.0 0.00 0.00 0.00 80 946.2
20181017153902 55 45 0.0 0.0 0.00 0.00 0.00 80 946.3
20181017152402 55 45 0.0 0.0 0.00 0.00 0.00 79 946.3
20181017152129 55 45 0.0 0.0 0.00 0.00 0.00 78 946.3
20181017151902 55 45 0.0 0.0 0.00 0.00 0.00 78 946.3
20181017151404 56 45 0.0 0.0 0.00 0.00 0.00 78 946.3
20181017151029 56 45 0.0 0.0 0.00 0.00 0.00 78 946.3
20181017150902 56 45 0.0 0.0 0.00 0.00 0.00 78 946.3
20181017150436 56 45 0.0 0.0 0.00 0.00 0.00 78 946.3
20181017150403 56 45 0.0 0.0 0.00 0.00 0.00 78 946.3
20181017145402 56 45 0.0 0.0 0.00 0.00 0.00 78 946.4
20181017144902 56 45 0.0 0.0 0.00 0.00 0.00 78 946.4
20181017143903 57 45 0.0 0.0 0.00 0.00 0.00 78 946.4
20181017143621 56 45 0.0 0.0 0.00 0.00 0.00 78 946.4
20181017143403 56 45 0.0 0.0 0.00 0.00 0.00 78 946.4
20181017142403 56 45 0.0 0.0 0.00 0.00 0.00 78 946.5
20181017140954 58 45 0.0 0.0 0.00 0.00 0.00 76 946.5
20181017140904 58 45 0.0 0.0 0.00 0.00 0.00 76 946.5
20181017140605 58 45 0.0 0.0 0.00 0.00 0.00 76 946.5
20181017140403 58 45 0.0 0.0 0.00 0.00 0.00 76 946.5
20181017135448 58 45 0.0 0.0 0.00 0.00 0.00 75 946.6
20181017135403 58 45 0.0 0.0 0.00 0.00 0.00 75 946.6
20181017134957 58 45 0.0 0.0 0.00 0.00 0.00 76 946.6
20181017134903 58 45 0.0 0.0 0.00 0.00 0.00 76 946.6
20181017134022 58 45 0.0 4.0 0.00 0.00 0.00 74 946.5
20181017133903 58 45 0.0 4.0 0.00 0.00 0.00 74 946.5
20181017133404 59 90 0.0 5.0 0.00 0.00 0.00 73 946.5
20181017132403 60 90 0.0 0.0 0.00 0.00 0.00 72 946.4
20181017131948 60 90 0.0 0.0 0.00 0.00 0.00 71 946.5
20181017131903 60 90 0.0 0.0 0.00 0.00 0.00 71 946.5
20181017130905 61 90 0.0 0.0 0.00 0.00 0.00 71 946.5
20181017130602 61 158 0.0 0.0 0.00 0.00 0.00 70 946.4
20181017130403 61 158 0.0 0.0 0.00 0.00 0.00 70 946.4
20181017125938 61 158 0.0 0.0 0.00 0.00 0.00 69 946.5
20181017125905 61 158 0.0 0.0 0.00 0.00 0.00 69 946.5
20181017125611 61 359 0.0 0.0 0.00 0.00 0.00 70 946.3
20181017125403 61 359 0.0 0.0 0.00 0.00 0.00 70 946.3
20181017124903 60 359 0.0 0.0 0.00 0.00 0.00 72 946.4
20181017123403 59 113 0.0 0.0 0.00 0.00 0.00 72 946.5
20181017122652 60 68 0.0 0.0 0.00 0.00 0.00 70 946.5
20181017122403 60 68 0.0 0.0 0.00 0.00 0.00 70 946.5
20181017120403 60 113 0.0 0.0 0.00 0.00 0.00 73 946.4
20181017115905 60 68 0.0 0.0 0.00 0.00 0.00 72 946.7
20181017115443 60 68 0.0 2.0 0.00 0.00 0.00 73 946.7
20181017115404 60 68 0.0 2.0 0.00 0.00 0.00 73 946.7
20181017114903 59 45 0.0 2.0 0.00 0.00 0.00 73 946.7
20181017114025 59 359 0.0 0.0 0.00 0.00 0.00 72 946.8
20181017113904 59 359 0.0 0.0 0.00 0.00 0.00 72 946.8
20181017113403 58 45 0.0 5.0 0.00 0.00 0.00 72 946.8
20181017113024 60 359 0.0 0.0 0.00 0.00 0.00 69 946.9
20181017112904 60 359 0.0 0.0 0.00 0.00 0.00 69 946.9
20181017112438 61 359 0.0 0.0 0.00 0.00 0.00 70 946.8
20181017112403 61 359 0.0 0.0 0.00 0.00 0.00 70 946.8
20181017112002 62 45 0.0 6.0 0.00 0.00 0.00 70 946.8
20181017111903 62 45 0.0 6.0 0.00 0.00 0.00 70 946.8
20181017111403 62 45 0.0 0.0 0.00 0.00 0.00 69 946.7
20181017110903 62 68 0.0 0.0 0.00 0.00 0.00 69 946.8
20181017110403 61 68 2.0 7.0 0.00 0.00 0.00 70 946.9
20181017105908 60 45 2.0 7.0 0.00 0.00 0.00 70 946.9
20181017105405 61 90 0.0 5.0 0.00 0.00 0.00 70 946.9
20181017104903 61 90 0.0 4.0 0.00 0.00 0.00 69 947.0
20181017104403 61 359 0.0 0.0 0.00 0.00 0.00 69 946.9
20181017103904 62 359 0.0 0.0 0.00 0.00 0.00 68 946.9
20181017103403 65 359 0.0 0.0 0.00 0.00 0.00 66 946.9
20181017101903 60 135 0.0 0.0 0.00 0.00 0.00 71 947.1
20181017100937 60 135 0.0 0.0 0.00 0.00 0.00 71 947.2
20181017100904 60 135 0.0 0.0 0.00 0.00 0.00 71 947.2
20181017100405 59 135 0.0 3.0 0.00 0.00 0.00 71 947.2
20181017095404 60 135 0.0 4.0 0.00 0.00 0.00 69 947.2
20181017094903 61 135 0.0 4.0 0.00 0.00 0.00 70 947.2
20181017094403 61 158 0.0 4.0 0.00 0.00 0.00 68 947.3
20181017093903 60 359 0.0 0.0 0.00 0.00 0.00 69 947.3
20181017093403 60 359 0.0 0.0 0.00 0.00 0.00 68 947.4
20181017093239 60 113 0.0 1.0 0.00 0.00 0.00 68 947.3
20181017092903 60 113 0.0 1.0 0.00 0.00 0.00 68 947.3
20181017092404 61 113 0.0 4.0 0.00 0.00 0.00 67 947.4
20181017091903 62 113 0.0 4.0 0.00 0.00 0.00 67 947.4
20181017090906 61 135 0.0 4.0 0.00 0.00 0.00 68 947.3
20181017090541 60 359 0.0 0.0 0.00 0.00 0.00 70 947.3
20181017090403 60 359 0.0 0.0 0.00 0.00 0.00 70 947.3
20181017085903 59 359 0.0 0.0 0.00 0.00 0.00 72 947.3
20181017084903 58 180 0.0 0.0 0.00 0.00 0.00 73 947.4
20181017083903 57 180 0.0 0.0 0.00 0.00 0.00 72 947.3
20181017083403 57 180 0.0 0.0 0.00 0.00 0.00 73 947.3
20181017082946 57 180 0.0 0.0 0.00 0.00 0.00 73 947.2
20181017082904 57 180 0.0 0.0 0.00 0.00 0.00 73 947.2
20181017081953 57 135 0.0 0.0 0.00 0.00 0.00 73 947.6
20181017081904 57 135 0.0 0.0 0.00 0.00 0.00 73 947.6
20181017081406 57 135 0.0 0.0 0.00 0.00 0.00 73 947.6
20181017080935 57 135 0.0 0.0 0.00 0.00 0.00 72 947.4
20181017080903 57 135 0.0 0.0 0.00 0.00 0.00 72 947.4
20181017080435 57 113 0.0 0.0 0.00 0.00 0.00 72 947.5
20181017080404 57 113 0.0 0.0 0.00 0.00 0.00 72 947.5
20181017075408 57 113 0.0 0.0 0.00 0.00 0.00 73 947.4
20181017074904 57 113 0.0 0.0 0.00 0.00 0.00 73 947.4
20181017073904 58 113 0.0 0.0 0.00 0.00 0.00 72 947.4
20181017073404 58 113 0.0 0.0 0.00 0.00 0.00 72 947.3
20181017072409 57 135 0.0 0.0 0.00 0.00 0.00 72 947.3
20181017071940 57 135 0.0 0.0 0.00 0.00 0.00 72 947.4
20181017071904 57 135 0.0 0.0 0.00 0.00 0.00 72 947.4
20181017071404 57 135 0.0 0.0 0.00 0.00 0.00 72 947.4
20181017070904 57 113 0.0 0.0 0.00 0.00 0.00 73 947.3
20181017070404 57 113 0.0 0.0 0.00 0.00 0.00 73 947.3
20181017065904 57 113 0.0 0.0 0.00 0.00 0.00 73 947.4
20181017065515 56 113 0.0 0.0 0.00 0.00 0.00 74 947.3
20181017065438 56 113 0.0 0.0 0.00 0.00 0.00 74 947.3
20181017065404 56 113 0.0 0.0 0.00 0.00 0.00 74 947.3
20181017063903 56 113 0.0 0.0 0.00 0.00 0.00 73 947.2
20181017063404 56 113 0.0 0.0 0.00 0.00 0.00 73 947.2
20181017062906 56 113 0.0 0.0 0.00 0.00 0.00 73 947.1
20181017062405 55 113 0.0 0.0 0.00 0.00 0.00 73 947.2
20181017061905 55 113 0.0 0.0 0.00 0.00 0.00 72 947.1
20181017060906 55 113 0.0 0.0 0.00 0.00 0.00 72 947.1
20181017060404 55 113 0.0 0.0 0.00 0.00 0.00 74 947.1
20181017055907 55 113 0.0 0.0 0.00 0.00 0.00 74 947.1
20181017055444 55 113 0.0 0.0 0.00 0.00 0.00 74 947.1
20181017055406 55 113 0.0 0.0 0.00 0.00 0.00 74 947.1
20181017054906 54 225 0.0 0.0 0.00 0.00 0.00 74 947.1
20181017054406 54 225 0.0 0.0 0.00 0.00 0.00 74 947.1
20181017053904 54 203 0.0 4.0 0.00 0.00 0.00 74 947.0
20181017053404 54 203 0.0 0.0 0.00 0.00 0.00 75 947.0
20181017052440 54 180 0.0 0.0 0.00 0.00 0.00 75 946.8
20181017052404 54 180 0.0 0.0 0.00 0.00 0.00 75 946.8
20181017051904 54 180 0.0 0.0 0.00 0.00 0.00 75 946.9
20181017051406 54 180 0.0 0.0 0.00 0.00 0.00 74 946.9
20181017050404 54 158 0.0 0.0 0.00 0.00 0.00 74 946.9
20181017045407 55 158 0.0 0.0 0.00 0.00 0.00 72 946.9
20181017045253 55 135 0.0 0.0 0.00 0.00 0.00 72 946.8
20181017044904 55 135 0.0 0.0 0.00 0.00 0.00 72 946.8
20181017044409 55 158 0.0 0.0 0.00 0.00 0.00 72 946.8
20181017043404 55 158 0.0 0.0 0.00 0.00 0.00 72 946.7
20181017042904 55 158 0.0 0.0 0.00 0.00 0.00 73 946.7
20181017042405 55 158 0.0 0.0 0.00 0.00 0.00 73 946.8
20181017041905 55 158 0.0 0.0 0.00 0.00 0.00 73 946.7
20181017041407 55 158 0.0 0.0 0.00 0.00 0.00 73 946.7
20181017040905 55 158 0.0 0.0 0.00 0.00 0.00 73 946.8
20181017040405 55 113 0.0 0.0 0.00 0.00 0.00 73 946.7
20181017035647 54 359 0.0 0.0 0.00 0.00 0.00 73 946.6
20181017035406 54 359 0.0 0.0 0.00 0.00 0.00 73 946.6
20181017034906 54 180 0.0 0.0 0.00 0.00 0.00 74 946.7
20181017034404 54 203 0.0 0.0 0.00 0.00 0.00 73 946.7
20181017033905 55 203 0.0 6.0 0.00 0.00 0.00 73 946.7
20181017033405 55 180 0.0 0.0 0.00 0.00 0.00 73 946.7
20181017032907 55 113 0.0 0.0 0.00 0.00 0.00 73 946.7
20181017032405 55 113 0.0 0.0 0.00 0.00 0.00 73 946.7
20181017031907 55 135 0.0 0.0 0.00 0.00 0.00 73 946.7
20181017031413 55 359 0.0 0.0 0.00 0.00 0.00 73 946.7
20181017030904 55 359 0.0 0.0 0.00 0.00 0.00 73 946.7
20181017030405 55 135 0.0 2.0 0.00 0.00 0.00 74 946.7
20181017025905 55 135 0.0 0.0 0.00 0.00 0.00 74 946.8
20181017025405 54 135 0.0 9.0 0.00 0.00 0.00 74 946.7
20181017024905 54 203 0.0 9.0 0.00 0.00 0.00 75 946.8
20181017024410 54 203 0.0 0.0 0.00 0.00 0.00 75 946.8
20181017023904 54 203 0.0 8.0 0.00 0.00 0.00 75 946.8
20181017023405 54 203 0.0 0.0 0.00 0.00 0.00 75 946.8
20181017022907 54 248 0.0 0.0 0.00 0.00 0.00 76 946.9
20181017022404 53 248 0.0 0.0 0.00 0.00 0.00 76 947.0
20181017021409 53 248 0.0 0.0 0.00 0.00 0.00 76 946.9
20181017020905 54 248 0.0 0.0 0.00 0.00 0.00 76 946.9
20181017020405 54 248 0.0 0.0 0.00 0.00 0.00 76 947.0
20181017015905 54 248 0.0 0.0 0.00 0.00 0.00 76 947.0
20181017015406 54 248 0.0 0.0 0.00 0.00 0.00 76 947.0
20181017014905 54 248 0.0 0.0 0.00 0.00 0.00 76 947.0
20181017014409 54 248 0.0 0.0 0.00 0.00 0.00 76 947.2
20181017013906 54 248 0.0 0.0 0.00 0.00 0.00 76 947.2
20181017013405 54 248 0.0 0.0 0.00 0.00 0.00 76 947.2
20181017012904 54 248 0.0 0.0 0.00 0.00 0.00 76 947.3
20181017012405 54 248 0.0 0.0 0.00 0.00 0.00 75 947.4
20181017011905 54 248 0.0 0.0 0.00 0.00 0.00 75 947.3
20181017011408 54 248 0.0 0.0 0.00 0.00 0.00 75 947.3
20181017010905 54 248 0.0 0.0 0.00 0.00 0.00 74 947.4
20181017010405 54 248 0.0 0.0 0.00 0.00 0.00 74 947.4
20181017005905 54 248 0.0 0.0 0.00 0.00 0.00 74 947.4
20181017005405 54 248 0.0 0.0 0.00 0.00 0.00 74 947.4
20181017004905 54 248 0.0 0.0 0.00 0.00 0.00 74 947.5
20181017004407 54 248 0.0 0.0 0.00 0.00 0.00 74 947.6
20181017003905 54 248 0.0 0.0 0.00 0.00 0.00 74 947.5
20181017003405 54 248 0.0 0.0 0.00 0.00 0.00 74 947.5
20181017002406 54 248 0.0 0.0 0.00 0.00 0.00 74 947.5
20181017001905 54 248 0.0 0.0 0.00 0.00 0.00 74 947.5
20181017001406 55 248 0.0 0.0 0.00 0.00 0.00 74 947.4
20181017000906 55 248 0.0 0.0 0.00 0.00 0.00 74 947.5
20181017000405 55 248 0.0 0.0 0.00 0.00 0.00 74 947.4
20181016235905 55 248 0.0 0.0 0.00 0.00 0.00 74 947.5
20181016235405 55 248 0.0 0.0 0.00 0.00 0.00 74 947.5
20181016234905 54 248 0.0 0.0 0.00 0.00 0.00 74 947.5
20181016234405 55 248 0.0 0.0 0.00 0.00 0.00 74 947.5
20181016233905 54 315 0.0 6.0 0.00 0.00 0.00 74 947.5
20181016233405 54 315 0.0 4.0 0.00 0.00 0.00 75 947.4
20181016232908 53 225 0.0 0.0 0.00 0.00 0.00 76 947.5
20181016232406 53 225 0.0 0.0 0.00 0.00 0.00 76 947.4
20181016231905 54 225 0.0 0.0 0.00 0.00 0.00 76 947.4
20181016231405 54 225 0.0 0.0 0.00 0.00 0.00 75 947.4
20181016230906 54 225 0.0 0.0 0.00 0.00 0.00 75 947.5
20181016230405 53 270 0.0 0.0 0.00 0.00 0.00 76 947.5
20181016225907 53 270 0.0 0.0 0.00 0.00 0.00 76 947.5
20181016225405 53 270 0.0 0.0 0.00 0.00 0.00 76 947.5
20181016224905 53 270 0.0 0.0 0.00 0.00 0.00 77 947.5
20181016224405 53 270 0.0 0.0 0.00 0.00 0.00 78 947.5